Flag for U.S.A. Weather past 2 weeks in Denver, Colorado, U.S.A.

Now
45 °F

Passing clouds.


Feels Like: 40 °F
Forecast: 41 / 76 °F
Wind: 9 mph from Southwest

Location: Buckley Air Force Base

Current Time: Mar 31, 2015 at 2:52:31 AM

Latest Report: Mar 31, 2015 at 1:58 AM


Visibility: 10 mi

Pressure: 29.97 "Hg

Humidity: 41%

Dew point: 23 °F

Location of DenverLocation

Historic Weather in Denver — Graph

°F

Denver temperature yesterday

Maximum temperature yesterday: 72 °F (at 3:58 PM)
Minimum temperature yesterday: 41 °F (at 5:58 AM)
Average temperature yesterday: 57 °F

Past Weeks' High & Low Weather Summary

 TemperatureHumidityPressure
High78 °F (Mar 16, 12:58 PM)100% (Mar 19, 12:58 AM)30.31 "Hg (Mar 19, 12:58 AM)
Low31 °F (Mar 25, 11:58 PM)9% (Mar 21, 3:58 PM)29.58 "Hg (Mar 25, 10:58 AM)
Average50 °F46%30.00 "Hg
* Reported Mar 16 1:58 AM — Mar 31 1:58 AM, Denver, Weather by CustomWeather, © 2015

Note: Actual official high and low records may vary slightly from our data, if they occured in-between our weather recording intervals... More about our weather records

Advertising

Denver weather history for previous 24 hours

 ConditionsComfort  
Time TempWeatherWind HumidityBarometerVisibility
1:58 AM
Tue, Mar 31
45 °FPassing clouds.9 mph41%29.97 "Hg10 mi
12:58 AM47 °FPassing clouds.7 mph37%29.98 "Hg10 mi
11:58 PM
Mon, Mar 30
49 °FPassing clouds.8 mph33%29.98 "Hg10 mi
10:58 PM54 °FPassing clouds.6 mph28%29.98 "Hg10 mi
9:58 PM52 °FPassing clouds.3 mph33%30.02 "Hg10 mi
8:58 PM58 °FPassing clouds.5 mph25%30.00 "Hg10 mi
7:58 PM62 °FPassing clouds.3 mph20%29.98 "Hg10 mi
6:58 PM64 °FPassing clouds.6 mph22%29.96 "Hg10 mi
5:58 PM69 °FPassing clouds.9 mph16%29.94 "Hg10 mi
4:58 PM70 °FPassing clouds.9 mph16%29.93 "Hg10 mi
3:58 PM72 °FPassing clouds.9 mph10%29.94 "Hg10 mi
2:58 PM72 °FScattered clouds.9 mph10%29.94 "Hg10 mi
1:58 PM72 °FScattered clouds.14 mph10%29.97 "Hg10 mi
12:58 PM70 °FScattered clouds.10 mph11%30.00 "Hg10 mi
9:58 AM59 °FScattered clouds.5 mph23%30.06 "Hg10 mi
5:58 AM41 °FPassing clouds.12 mph45%30.02 "Hg10 mi
4:58 AM43 °FClear.10 mph41%30.02 "Hg10 mi
3:58 AM43 °FPassing clouds.6 mph44%30.01 "Hg10 mi
2:58 AM46 °FPassing clouds.6 mph40%30.01 "Hg10 mi
Weather by CustomWeather, © 2015

See weather overviewHow to use our weather pages